Time,TemperatureF,DewpointF,PressureIn,WindDirection,WindDirectionDegrees,WindSpeedMPH,WindSpeedGustMPH,Humidity,HourlyPrecipIn,Conditions,Clouds,dailyrainin,SoftwareType,DateUTC
2013-06-05 00:01:00,67.8,41.3,27.55,WNW,294,0.0,0.0,38,0.00,,---,0.00,VWS V14.01,2013-06-05 04:01:00,
2013-06-05 00:06:00,67.8,41.3,27.55,SW,230,2.2,2.7,38,0.00,,---,0.00,VWS V14.01,2013-06-05 04:06:00,
2013-06-05 00:11:00,67.8,41.3,27.55,SW,235,2.7,3.1,38,0.00,,---,0.00,VWS V14.01,2013-06-05 04:11:00,
2013-06-05 00:16:00,67.6,41.2,27.55,West,269,0.0,0.0,38,0.00,,---,0.00,VWS V14.01,2013-06-05 04:16:00,
2013-06-05 00:21:00,67.6,41.2,27.55,North,0,2.2,2.7,38,0.00,,---,0.00,VWS V14.01,2013-06-05 04:21:00,
2013-06-05 00:26:00,67.6,41.2,27.55,North,353,0.0,0.0,38,0.00,,---,0.00,VWS V14.01,2013-06-05 04:26:00,
2013-06-05 00:31:00,67.5,41.0,27.55,SW,215,0.0,0.0,38,0.00,,---,0.00,VWS V14.01,2013-06-05 04:31:00,
2013-06-05 00:36:00,67.5,41.7,27.55,ESE,103,0.0,0.0,39,0.00,,---,0.00,VWS V14.01,2013-06-05 04:36:00,
2013-06-05 00:41:00,67.3,41.5,27.55,North,353,2.2,2.2,39,0.00,,---,0.00,VWS V14.01,2013-06-05 04:41:00,
2013-06-05 00:46:00,67.3,41.5,27.55,NNW,339,0.0,0.0,39,0.00,,---,0.00,VWS V14.01,2013-06-05 04:46:00,
2013-06-05 00:51:00,67.1,42.0,27.55,WNW,300,0.0,0.0,40,0.00,,---,0.00,VWS V14.01,2013-06-05 04:51:00,
2013-06-05 00:56:00,67.1,42.0,27.55,WNW,300,0.0,0.0,40,0.00,,---,0.00,VWS V14.01,2013-06-05 04:56:00,
2013-06-05 01:02:00,67.1,42.0,27.55,WNW,300,0.0,0.0,40,0.00,,---,0.00,VWS V14.01,2013-06-05 05:02:00,
2013-06-05 01:07:00,66.9,41.8,27.55,WNW,300,0.0,0.0,40,0.00,,---,0.00,VWS V14.01,2013-06-05 05:07:00,
2013-06-05 01:12:00,66.9,42.5,27.55,WNW,300,0.0,0.0,41,0.00,,---,0.00,VWS V14.01,2013-06-05 05:12:00,
2013-06-05 01:17:00,66.9,42.5,27.55,SSW,203,2.7,4.0,41,0.00,,---,0.00,VWS V14.01,2013-06-05 05:17:00,
2013-06-05 01:22:00,66.9,43.1,27.55,SSW,204,0.0,0.0,42,0.00,,---,0.00,VWS V14.01,2013-06-05 05:22:00,
2013-06-05 01:27:00,66.9,43.1,27.55,SSE,156,0.0,0.0,42,0.00,,---,0.00,VWS V14.01,2013-06-05 05:27:00,
2013-06-05 01:32:00,66.9,43.1,27.55,SE,132,0.0,0.0,42,0.00,,---,0.00,VWS V14.01,2013-06-05 05:32:00,
2013-06-05 01:37:00,66.9,43.7,27.55,WSW,247,0.0,2.2,43,0.00,,---,0.00,VWS V14.01,2013-06-05 05:37:00,
2013-06-05 01:42:00,66.9,43.7,27.55,SSW,196,2.7,2.7,43,0.00,,---,0.00,VWS V14.01,2013-06-05 05:42:00,
2013-06-05 01:47:00,66.9,43.7,27.55,WSW,258,2.7,3.1,43,0.00,,---,0.00,VWS V14.01,2013-06-05 05:47:00,
2013-06-05 01:52:00,66.9,43.7,27.55,WSW,245,3.6,3.6,43,0.00,,---,0.00,VWS V14.01,2013-06-05 05:52:00,
2013-06-05 01:56:00,67.1,43.9,27.55,NNE,12,0.0,0.0,43,0.00,,---,0.00,VWS V14.01,2013-06-05 05:56:00,
2013-06-05 02:02:00,67.1,44.5,27.55,ENE,61,2.2,3.6,44,0.00,,---,0.00,VWS V14.01,2013-06-05 06:02:00,
2013-06-05 02:06:00,67.1,44.5,27.55,ESE,119,2.7,3.1,44,0.00,,---,0.00,VWS V14.01,2013-06-05 06:06:00,
2013-06-05 02:12:00,67.1,44.5,27.55,SE,142,2.7,2.7,44,0.00,,---,0.00,VWS V14.01,2013-06-05 06:12:00,
2013-06-05 02:17:00,67.1,44.5,27.55,ESE,122,4.0,4.0,44,0.00,,---,0.00,VWS V14.01,2013-06-05 06:17:00,
2013-06-05 02:22:00,67.1,44.5,27.55,ESE,117,2.7,2.7,44,0.00,,---,0.00,VWS V14.01,2013-06-05 06:22:00,
2013-06-05 02:27:00,67.1,43.9,27.55,East,95,2.7,3.1,43,0.00,,---,0.00,VWS V14.01,2013-06-05 06:27:00,
2013-06-05 02:32:00,66.9,43.7,27.55,ESE,112,0.0,4.0,43,0.00,,---,0.00,VWS V14.01,2013-06-05 06:32:00,
2013-06-05 02:37:00,66.9,43.7,27.55,WSW,252,2.7,2.7,43,0.00,,---,0.00,VWS V14.01,2013-06-05 06:37:00,
2013-06-05 02:42:00,66.9,44.3,27.55,South,179,2.7,3.1,44,0.00,,---,0.00,VWS V14.01,2013-06-05 06:42:00,
2013-06-05 02:47:00,66.9,44.3,27.55,South,182,2.7,2.7,44,0.00,,---,0.00,VWS V14.01,2013-06-05 06:47:00,
2013-06-05 02:52:00,66.9,44.3,27.55,South,182,0.0,0.0,44,0.00,,---,0.00,VWS V14.01,2013-06-05 06:52:00,
2013-06-05 02:57:00,66.9,44.3,27.55,East,81,0.0,2.2,44,0.00,,---,0.00,VWS V14.01,2013-06-05 06:57:00,
2013-06-05 03:02:00,66.9,44.3,27.55,East,81,0.0,0.0,44,0.00,,---,0.00,VWS V14.01,2013-06-05 07:02:00,
2013-06-05 03:07:00,66.9,44.3,27.55,East,81,0.0,0.0,44,0.00,,---,0.00,VWS V14.01,2013-06-05 07:07:00,
2013-06-05 03:12:00,66.9,44.3,27.55,East,81,0.0,0.0,44,0.00,,---,0.00,VWS V14.01,2013-06-05 07:12:00,
2013-06-05 03:17:00,66.9,44.3,27.55,East,81,0.0,0.0,44,0.00,,---,0.00,VWS V14.01,2013-06-05 07:17:00,
2013-06-05 03:22:00,66.9,44.3,27.55,SW,215,0.0,0.0,44,0.00,,---,0.00,VWS V14.01,2013-06-05 07:22:00,
2013-06-05 03:27:00,66.9,44.3,27.52,SSW,212,0.0,0.0,44,0.00,,---,0.00,VWS V14.01,2013-06-05 07:27:00,
2013-06-05 03:32:00,66.9,44.3,27.52,ENE,75,0.0,0.0,44,0.00,,---,0.00,VWS V14.01,2013-06-05 07:32:00,
2013-06-05 03:37:00,66.9,44.3,27.52,ENE,70,0.0,0.0,44,0.00,,---,0.00,VWS V14.01,2013-06-05 07:37:00,
2013-06-05 03:41:00,66.7,44.2,27.52,ESE,104,0.0,2.7,44,0.00,,---,0.00,VWS V14.01,2013-06-05 07:41:00,
2013-06-05 03:46:00,66.7,44.8,27.52,East,97,0.0,0.0,45,0.00,,---,0.00,VWS V14.01,2013-06-05 07:46:00,
2013-06-05 03:52:00,66.7,44.8,27.52,East,90,2.2,2.2,45,0.00,,---,0.00,VWS V14.01,2013-06-05 07:52:00,
2013-06-05 03:57:00,66.7,44.8,27.52,West,266,0.0,2.2,45,0.00,,---,0.00,VWS V14.01,2013-06-05 07:57:00,
2013-06-05 04:02:00,66.7,44.8,27.52,WSW,245,0.0,2.2,45,0.00,,---,0.00,VWS V14.01,2013-06-05 08:02:00,
2013-06-05 04:07:00,66.7,44.8,27.52,SSE,155,0.0,0.0,45,0.00,,---,0.00,VWS V14.01,2013-06-05 08:07:00,
2013-06-05 04:12:00,66.7,44.8,27.52,SSE,166,2.2,2.2,45,0.00,,---,0.00,VWS V14.01,2013-06-05 08:12:00,
2013-06-05 04:17:00,66.7,44.8,27.52,SSW,198,0.0,0.0,45,0.00,,---,0.00,VWS V14.01,2013-06-05 08:17:00,
2013-06-05 04:22:00,66.7,44.8,27.52,SSW,198,0.0,0.0,45,0.00,,---,0.00,VWS V14.01,2013-06-05 08:22:00,
2013-06-05 04:27:00,66.6,44.6,27.52,SSW,197,0.0,0.0,45,0.00,,---,0.00,VWS V14.01,2013-06-05 08:27:00,
2013-06-05 04:32:00,66.6,44.6,27.52,SSW,197,0.0,0.0,45,0.00,,---,0.00,VWS V14.01,2013-06-05 08:32:00,
2013-06-05 04:37:00,66.6,44.6,27.52,SSW,197,0.0,0.0,45,0.00,,---,0.00,VWS V14.01,2013-06-05 08:37:00,
2013-06-05 04:42:00,66.6,45.2,27.55,SSW,197,0.0,0.0,46,0.00,,---,0.00,VWS V14.01,2013-06-05 08:42:00,
2013-06-05 04:47:00,66.6,45.2,27.55,SSW,197,0.0,0.0,46,0.00,,---,0.00,VWS V14.01,2013-06-05 08:47:00,
2013-06-05 04:52:00,66.6,45.2,27.55,SSW,197,0.0,0.0,46,0.00,,---,0.00,VWS V14.01,2013-06-05 08:52:00,
2013-06-05 04:57:00,66.6,45.2,27.55,SSW,197,0.0,0.0,46,0.00,,---,0.00,VWS V14.01,2013-06-05 08:57:00,
2013-06-05 05:02:00,66.6,45.2,27.55,SSW,197,0.0,0.0,46,0.00,,---,0.00,VWS V14.01,2013-06-05 09:02:00,
2013-06-05 05:07:00,66.6,45.2,27.55,SSW,197,0.0,0.0,46,0.00,,---,0.00,VWS V14.01,2013-06-05 09:07:00,
2013-06-05 05:12:00,66.6,45.2,27.55,SSW,197,0.0,0.0,46,0.00,,---,0.00,VWS V14.01,2013-06-05 09:12:00,
2013-06-05 05:17:00,66.6,45.2,27.55,SSW,197,0.0,0.0,46,0.00,,---,0.00,VWS V14.01,2013-06-05 09:17:00,
2013-06-05 05:22:00,66.6,45.2,27.55,SSW,197,0.0,0.0,46,0.00,,---,0.00,VWS V14.01,2013-06-05 09:22:00,
2013-06-05 05:27:00,66.6,45.2,27.55,SSW,197,0.0,0.0,46,0.00,,---,0.00,VWS V14.01,2013-06-05 09:27:00,
2013-06-05 05:32:00,66.6,45.2,27.55,SSW,197,0.0,0.0,46,0.00,,---,0.00,VWS V14.01,2013-06-05 09:32:00,
2013-06-05 05:37:00,66.6,45.2,27.55,SSW,197,0.0,0.0,46,0.00,,---,0.00,VWS V14.01,2013-06-05 09:37:00,
2013-06-05 05:42:00,66.6,45.2,27.55,SSW,197,0.0,0.0,46,0.00,,---,0.00,VWS V14.01,2013-06-05 09:42:00,
2013-06-05 05:47:00,66.6,45.7,27.55,SSW,197,0.0,0.0,47,0.00,,---,0.00,VWS V14.01,2013-06-05 09:47:00,
2013-06-05 05:52:00,66.6,45.7,27.55,SSW,197,0.0,0.0,47,0.00,,---,0.00,VWS V14.01,2013-06-05 09:52:00,
2013-06-05 05:57:00,66.6,45.7,27.55,SSW,197,0.0,0.0,47,0.00,,---,0.00,VWS V14.01,2013-06-05 09:57:00,
2013-06-05 06:02:00,66.6,45.7,27.55,SSW,197,0.0,0.0,47,0.00,,---,0.00,VWS V14.01,2013-06-05 10:02:00,
2013-06-05 06:07:00,66.4,45.6,27.55,SSW,197,0.0,0.0,47,0.00,,---,0.00,VWS V14.01,2013-06-05 10:07:00,
2013-06-05 06:12:00,66.4,45.6,27.55,SSW,197,0.0,0.0,47,0.00,,---,0.00,VWS V14.01,2013-06-05 10:12:00,
2013-06-05 06:17:00,66.4,45.6,27.55,SSW,197,0.0,0.0,47,0.00,,---,0.00,VWS V14.01,2013-06-05 10:17:00,
2013-06-05 06:22:00,66.4,45.6,27.55,SSW,197,0.0,0.0,47,0.00,,---,0.00,VWS V14.01,2013-06-05 10:22:00,
2013-06-05 06:27:00,66.4,45.6,27.55,SSW,197,0.0,0.0,47,0.00,,---,0.00,VWS V14.01,2013-06-05 10:27:00,
2013-06-05 06:32:00,66.4,45.6,27.55,SSW,197,0.0,0.0,47,0.00,,---,0.00,VWS V14.01,2013-06-05 10:32:00,
2013-06-05 06:37:00,66.4,45.6,27.55,SSW,197,0.0,0.0,47,0.00,,---,0.00,VWS V14.01,2013-06-05 10:37:00,
2013-06-05 06:42:00,66.2,45.4,27.55,SSW,197,0.0,0.0,47,0.00,,---,0.00,VWS V14.01,2013-06-05 10:42:00,
2013-06-05 06:47:00,66.2,45.4,27.55,SE,138,2.7,2.7,47,0.00,,---,0.00,VWS V14.01,2013-06-05 10:47:00,
2013-06-05 06:52:00,66.2,45.4,27.55,SE,138,0.0,0.0,47,0.00,,---,0.00,VWS V14.01,2013-06-05 10:52:00,
2013-06-05 06:57:00,66.2,45.4,27.55,SE,138,0.0,0.0,47,0.00,,---,0.00,VWS V14.01,2013-06-05 10:57:00,
2013-06-05 07:02:00,66.2,45.4,27.55,SE,138,0.0,0.0,47,0.00,,---,0.00,VWS V14.01,2013-06-05 11:02:00,
2013-06-05 07:07:00,66.2,46.0,27.55,SE,138,0.0,0.0,48,0.00,,---,0.00,VWS V14.01,2013-06-05 11:07:00,
2013-06-05 07:12:00,66.2,46.0,27.55,SE,138,0.0,0.0,48,0.00,,---,0.00,VWS V14.01,2013-06-05 11:12:00,
2013-06-05 07:17:00,66.2,46.0,27.55,SE,138,0.0,0.0,48,0.00,,---,0.00,VWS V14.01,2013-06-05 11:17:00,
2013-06-05 07:22:00,66.2,46.0,27.55,SE,138,0.0,0.0,48,0.00,,---,0.00,VWS V14.01,2013-06-05 11:22:00,
2013-06-05 07:27:00,66.2,46.0,27.55,SE,138,0.0,0.0,48,0.00,,---,0.00,VWS V14.01,2013-06-05 11:27:00,
2013-06-05 07:32:00,66.2,46.0,27.55,SE,138,0.0,0.0,48,0.00,,---,0.00,VWS V14.01,2013-06-05 11:32:00,
2013-06-05 07:37:00,66.4,46.1,27.55,ESE,118,2.2,3.1,48,0.00,,---,0.00,VWS V14.01,2013-06-05 11:37:00,
2013-06-05 07:42:00,66.4,46.1,27.58,ESE,118,0.0,0.0,48,0.00,,---,0.00,VWS V14.01,2013-06-05 11:42:00,
2013-06-05 07:47:00,66.4,46.1,27.58,SE,139,0.0,2.7,48,0.00,,---,0.00,VWS V14.01,2013-06-05 11:47:00,
2013-06-05 07:52:00,66.6,46.3,27.58,SE,139,0.0,0.0,48,0.00,,---,0.00,VWS V14.01,2013-06-05 11:52:00,
2013-06-05 07:57:00,66.7,46.5,27.58,SE,139,0.0,0.0,48,0.00,,---,0.00,VWS V14.01,2013-06-05 11:57:00,
2013-06-05 08:02:00,67.1,47.3,27.58,SE,139,0.0,0.0,49,0.00,,---,0.00,VWS V14.01,2013-06-05 12:02:00,
2013-06-05 08:07:00,67.3,46.9,27.58,SE,128,0.0,2.2,48,0.00,,---,0.00,VWS V14.01,2013-06-05 12:07:00,
2013-06-05 08:12:00,67.3,46.9,27.58,SE,128,0.0,0.0,48,0.00,,---,0.00,VWS V14.01,2013-06-05 12:12:00,
2013-06-05 08:17:00,67.5,47.1,27.58,SE,128,0.0,0.0,48,0.00,,---,0.00,VWS V14.01,2013-06-05 12:17:00,
2013-06-05 08:22:00,67.5,46.5,27.58,SE,128,0.0,0.0,47,0.00,,---,0.00,VWS V14.01,2013-06-05 12:22:00,
2013-06-05 08:27:00,67.5,46.5,27.58,SW,229,0.0,0.0,47,0.00,,---,0.00,VWS V14.01,2013-06-05 12:27:00,
2013-06-05 08:32:00,67.5,46.5,27.58,WSW,248,0.0,0.0,47,0.00,,---,0.00,VWS V14.01,2013-06-05 12:32:00,
2013-06-05 08:37:00,67.3,46.4,27.58,East,96,0.0,0.0,47,0.00,,---,0.00,VWS V14.01,2013-06-05 12:37:00,
2013-06-05 08:42:00,67.3,45.8,27.58,East,96,0.0,0.0,46,0.00,,---,0.00,VWS V14.01,2013-06-05 12:42:00,
2013-06-05 08:47:00,67.3,46.4,27.58,East,96,0.0,0.0,47,0.00,,---,0.00,VWS V14.01,2013-06-05 12:47:00,
2013-06-05 08:52:00,67.5,46.0,27.58,East,96,0.0,0.0,46,0.00,,---,0.00,VWS V14.01,2013-06-05 12:52:00,
2013-06-05 08:57:00,67.5,46.0,27.58,East,96,0.0,0.0,46,0.00,,---,0.00,VWS V14.01,2013-06-05 12:57:00,
2013-06-05 09:02:00,67.6,46.1,27.58,ESE,103,2.7,2.7,46,0.00,,---,0.00,VWS V14.01,2013-06-05 13:02:00,
2013-06-05 09:07:00,67.6,46.1,27.58,ESE,104,3.1,3.1,46,0.00,,---,0.00,VWS V14.01,2013-06-05 13:07:00,
2013-06-05 09:12:00,67.6,46.1,27.58,ENE,64,0.0,0.0,46,0.00,,---,0.00,VWS V14.01,2013-06-05 13:12:00,
2013-06-05 09:17:00,67.6,46.1,27.58,East,93,2.2,2.7,46,0.00,,---,0.00,VWS V14.01,2013-06-05 13:17:00,
2013-06-05 09:22:00,67.6,46.1,27.58,East,93,0.0,0.0,46,0.00,,---,0.00,VWS V14.01,2013-06-05 13:22:00,
2013-06-05 09:27:00,67.8,46.3,27.58,ESE,116,0.0,0.0,46,0.00,,---,0.00,VWS V14.01,2013-06-05 13:27:00,
2013-06-05 09:32:00,68.0,46.5,27.58,South,188,0.0,2.2,46,0.00,,---,0.00,VWS V14.01,2013-06-05 13:32:00,
2013-06-05 09:37:00,68.4,46.8,27.58,ENE,78,0.0,2.7,46,0.00,,---,0.00,VWS V14.01,2013-06-05 13:37:00,
2013-06-05 09:42:00,68.5,46.4,27.58,SE,144,0.0,2.7,45,0.00,,---,0.00,VWS V14.01,2013-06-05 13:42:00,
2013-06-05 09:47:00,69.1,46.9,27.58,SSW,204,0.0,0.0,45,0.00,,---,0.00,VWS V14.01,2013-06-05 13:47:00,
2013-06-05 09:52:00,69.4,46.6,27.58,SSW,204,0.0,0.0,44,0.00,,---,0.00,VWS V14.01,2013-06-05 13:52:00,
2013-06-05 09:57:00,69.6,46.2,27.58,East,80,0.0,0.0,43,0.00,,---,0.00,VWS V14.01,2013-06-05 13:57:00,
2013-06-05 10:02:00,69.6,46.2,27.58,East,80,0.0,0.0,43,0.00,,---,0.00,VWS V14.01,2013-06-05 14:02:00,
2013-06-05 10:07:00,69.6,45.5,27.58,East,81,2.7,2.7,42,0.00,,---,0.00,VWS V14.01,2013-06-05 14:07:00,
2013-06-05 10:12:00,69.4,45.4,27.58,SE,126,2.7,2.7,42,0.00,,---,0.00,VWS V14.01,2013-06-05 14:12:00,
2013-06-05 10:17:00,69.4,44.7,27.58,East,92,2.7,2.7,41,0.00,,---,0.00,VWS V14.01,2013-06-05 14:17:00,
2013-06-05 10:22:00,69.4,44.7,27.58,SSE,164,0.0,0.0,41,0.00,,---,0.00,VWS V14.01,2013-06-05 14:22:00,
2013-06-05 10:27:00,69.6,44.9,27.58,SSE,159,0.0,0.0,41,0.00,,---,0.00,VWS V14.01,2013-06-05 14:27:00,
2013-06-05 10:32:00,69.8,43.8,27.58,SE,138,0.0,0.0,39,0.00,,---,0.00,VWS V14.01,2013-06-05 14:32:00,
2013-06-05 10:37:00,69.6,42.9,27.58,NNW,335,2.2,2.2,38,0.00,,---,0.00,VWS V14.01,2013-06-05 14:37:00,
2013-06-05 10:42:00,69.8,43.8,27.55,East,85,0.0,0.0,39,0.00,,---,0.00,VWS V14.01,2013-06-05 14:42:00,
2013-06-05 10:47:00,70.3,44.9,27.55,ESE,108,2.2,2.7,40,0.00,,---,0.00,VWS V14.01,2013-06-05 14:47:00,
2013-06-05 10:52:00,71.1,44.2,27.55,NE,51,2.2,2.2,38,0.00,,---,0.00,VWS V14.01,2013-06-05 14:52:00,
2013-06-05 10:57:00,71.1,42.0,27.55,East,82,4.0,5.4,35,0.00,,---,0.00,VWS V14.01,2013-06-05 14:57:00,
2013-06-05 11:02:00,71.2,42.2,27.55,SE,124,2.7,3.1,35,0.00,,---,0.00,VWS V14.01,2013-06-05 15:02:00,
2013-06-05 11:07:00,72.0,42.8,27.55,East,99,0.0,0.0,35,0.00,,---,0.00,VWS V14.01,2013-06-05 15:07:00,
2013-06-05 11:12:00,72.3,42.4,27.55,South,191,0.0,2.7,34,0.00,,---,0.00,VWS V14.01,2013-06-05 15:12:00,
2013-06-05 11:17:00,72.7,42.0,27.55,SE,124,0.0,0.0,33,0.00,,---,0.00,VWS V14.01,2013-06-05 15:17:00,
2013-06-05 11:22:00,72.7,42.0,27.55,ESE,108,0.0,2.7,33,0.00,,---,0.00,VWS V14.01,2013-06-05 15:22:00,
2013-06-05 11:27:00,72.7,41.2,27.55,ENE,76,2.7,3.6,32,0.00,,---,0.00,VWS V14.01,2013-06-05 15:27:00,
2013-06-05 11:32:00,72.3,40.8,27.55,ENE,76,3.6,3.6,32,0.00,,---,0.00,VWS V14.01,2013-06-05 15:32:00,
2013-06-05 11:37:00,72.5,41.0,27.55,NE,52,2.2,3.1,32,0.00,,---,0.00,VWS V14.01,2013-06-05 15:37:00,
2013-06-05 11:42:00,72.7,41.2,27.55,ESE,120,3.1,3.1,32,0.00,,---,0.00,VWS V14.01,2013-06-05 15:42:00,
2013-06-05 11:47:00,72.9,41.3,27.55,SE,145,0.0,0.0,32,0.00,,---,0.00,VWS V14.01,2013-06-05 15:47:00,
2013-06-05 11:52:00,72.9,40.5,27.55,WSW,239,0.0,4.0,31,0.00,,---,0.00,VWS V14.01,2013-06-05 15:52:00,
2013-06-05 11:57:00,73.0,40.6,27.55,East,86,3.6,3.6,31,0.00,,---,0.00,VWS V14.01,2013-06-05 15:57:00,
2013-06-05 12:02:00,73.0,39.8,27.55,ENE,67,3.6,3.6,30,0.00,,---,0.00,VWS V14.01,2013-06-05 16:02:00,
2013-06-05 12:07:00,73.0,39.8,27.55,ESE,121,0.0,0.0,30,0.00,,---,0.00,VWS V14.01,2013-06-05 16:07:00,
2013-06-05 12:12:00,72.9,38.8,27.55,NE,48,2.7,3.6,29,0.00,,---,0.00,VWS V14.01,2013-06-05 16:12:00,
2013-06-05 12:17:00,73.4,41.8,27.55,SE,133,0.0,2.2,32,0.00,,---,0.00,VWS V14.01,2013-06-05 16:17:00,
2013-06-05 12:22:00,74.8,42.2,27.55,East,88,0.0,0.0,31,0.00,,---,0.00,VWS V14.01,2013-06-05 16:22:00,
2013-06-05 12:27:00,75.7,39.4,27.55,South,191,2.2,2.2,27,0.00,,---,0.00,VWS V14.01,2013-06-05 16:27:00,
2013-06-05 12:32:00,76.1,37.8,27.55,SW,214,0.0,0.0,25,0.00,,---,0.00,VWS V14.01,2013-06-05 16:32:00,
2013-06-05 12:37:00,75.9,34.4,27.55,SSE,153,0.0,0.0,22,0.00,,---,0.00,VWS V14.01,2013-06-05 16:37:00,
2013-06-05 12:42:00,75.4,33.9,27.55,SE,143,0.0,0.0,22,0.00,,---,0.00,VWS V14.01,2013-06-05 16:42:00,
2013-06-05 12:47:00,75.0,34.7,27.55,East,80,0.0,2.2,23,0.00,,---,0.00,VWS V14.01,2013-06-05 16:47:00,
2013-06-05 12:52:00,75.7,37.5,27.55,East,84,2.2,3.6,25,0.00,,---,0.00,VWS V14.01,2013-06-05 16:52:00,
2013-06-05 12:57:00,77.0,32.9,27.52,WNW,303,2.7,2.7,20,0.00,,---,0.00,VWS V14.01,2013-06-05 16:57:00,
2013-06-05 13:02:00,77.2,30.4,27.52,East,93,4.0,4.0,18,0.00,,---,0.00,VWS V14.01,2013-06-05 17:02:00,
2013-06-05 13:07:00,77.4,33.2,27.52,East,85,3.1,3.6,20,0.00,,---,0.00,VWS V14.01,2013-06-05 17:07:00,
2013-06-05 13:12:00,78.4,27.0,27.52,WSW,251,3.1,4.0,15,0.00,,---,0.00,VWS V14.01,2013-06-05 17:12:00,
2013-06-05 13:17:00,79.5,10.1,27.52,North,357,0.0,0.0,7,0.00,,---,0.00,VWS V14.01,2013-06-05 17:17:00,
2013-06-05 13:22:00,80.6,10.9,27.52,North,353,2.2,2.7,7,0.00,,---,0.00,VWS V14.01,2013-06-05 17:22:00,
2013-06-05 13:27:00,81.7,-0.5,27.52,NE,39,3.1,3.1,4,0.00,,---,0.00,VWS V14.01,2013-06-05 17:27:00,
2013-06-05 13:32:00,81.5,-0.7,27.52,ESE,106,3.6,4.0,4,0.00,,---,0.00,VWS V14.01,2013-06-05 17:32:00,
2013-06-05 13:37:00,81.1,-0.9,27.52,ESE,119,3.6,3.6,4,0.00,,---,0.00,VWS V14.01,2013-06-05 17:37:00,
2013-06-05 13:42:00,82.2,-0.2,27.52,WSW,249,0.0,2.2,4,0.00,,---,0.00,VWS V14.01,2013-06-05 17:42:00,
2013-06-05 13:47:00,82.6,0.1,27.52,ENE,61,3.1,3.1,4,0.00,,---,0.00,VWS V14.01,2013-06-05 17:47:00,
2013-06-05 13:52:00,82.8,-14.0,27.52,NE,36,5.8,5.8,2,0.00,,---,0.00,VWS V14.01,2013-06-05 17:52:00,
2013-06-05 13:57:00,83.3,-13.7,27.52,NE,41,2.2,2.2,2,0.00,,---,0.00,VWS V14.01,2013-06-05 17:57:00,
2013-06-05 14:02:00,82.9,-13.9,27.52,NNW,329,2.7,2.7,2,0.00,,---,0.00,VWS V14.01,2013-06-05 18:02:00,
2013-06-05 14:07:00,82.2,-14.4,27.52,SE,127,3.1,3.1,2,0.00,,---,0.00,VWS V14.01,2013-06-05 18:07:00,
2013-06-05 14:12:00,81.7,-14.7,27.52,ENE,69,4.0,4.0,2,0.00,,---,0.00,VWS V14.01,2013-06-05 18:12:00,
2013-06-05 14:17:00,81.7,-14.7,27.52,ENE,75,3.1,3.1,2,0.00,,---,0.00,VWS V14.01,2013-06-05 18:17:00,
2013-06-05 14:22:00,82.2,-14.4,27.52,SE,130,2.2,2.2,2,0.00,,---,0.00,VWS V14.01,2013-06-05 18:22:00,
2013-06-05 14:27:00,82.8,-14.0,27.49,NE,56,2.7,2.7,2,0.00,,---,0.00,VWS V14.01,2013-06-05 18:27:00,
2013-06-05 14:32:00,82.4,-14.2,27.49,NE,56,2.7,2.7,2,0.00,,---,0.00,VWS V14.01,2013-06-05 18:32:00,
2013-06-05 14:37:00,81.0,-15.2,27.49,NNE,30,2.7,3.1,2,0.00,,---,0.00,VWS V14.01,2013-06-05 18:37:00,
2013-06-05 14:42:00,79.0,-16.5,27.49,WSW,239,0.0,2.7,2,0.00,,---,0.00,VWS V14.01,2013-06-05 18:42:00,
2013-06-05 14:47:00,77.7,1.5,27.49,ENE,60,3.1,3.1,5,0.00,,---,0.00,VWS V14.01,2013-06-05 18:47:00,
2013-06-05 14:52:00,76.6,0.7,27.49,SE,132,2.7,3.6,5,0.00,,---,0.00,VWS V14.01,2013-06-05 18:52:00,
2013-06-05 14:57:00,76.1,10.6,27.49,East,97,7.6,7.6,8,0.00,,---,0.00,VWS V14.01,2013-06-05 18:57:00,
2013-06-05 15:02:00,75.4,15.1,27.49,ESE,113,3.6,3.6,10,0.00,,---,0.00,VWS V14.01,2013-06-05 19:02:00,
2013-06-05 15:07:00,75.0,17.0,27.49,West,273,3.1,3.1,11,0.00,,---,0.00,VWS V14.01,2013-06-05 19:07:00,
2013-06-05 15:12:00,74.7,25.5,27.49,NNE,17,2.7,3.1,16,0.00,,---,0.00,VWS V14.01,2013-06-05 19:12:00,
2013-06-05 15:17:00,74.7,28.4,27.49,ENE,78,3.6,3.6,18,0.00,,---,0.00,VWS V14.01,2013-06-05 19:17:00,
2013-06-05 15:22:00,74.8,28.5,27.49,South,186,0.0,2.2,18,0.00,,---,0.00,VWS V14.01,2013-06-05 19:22:00,
2013-06-05 15:27:00,75.0,32.5,27.49,ESE,107,0.0,0.0,21,0.00,,---,0.00,VWS V14.01,2013-06-05 19:27:00,
2013-06-05 15:32:00,75.6,29.1,27.49,West,265,2.2,5.8,18,0.00,,---,0.00,VWS V14.01,2013-06-05 19:32:00,
2013-06-05 15:37:00,75.9,21.6,27.49,NW,319,3.1,3.1,13,0.00,,---,0.00,VWS V14.01,2013-06-05 19:37:00,
2013-06-05 15:42:00,76.1,15.6,27.46,ESE,116,4.0,4.0,10,0.00,,---,0.00,VWS V14.01,2013-06-05 19:42:00,
2013-06-05 15:47:00,76.1,21.7,27.46,SSE,154,2.7,2.7,13,0.00,,---,0.00,VWS V14.01,2013-06-05 19:47:00,
2013-06-05 15:52:00,76.3,21.9,27.46,ESE,116,0.0,0.0,13,0.00,,---,0.00,VWS V14.01,2013-06-05 19:52:00,
2013-06-05 15:57:00,76.6,22.1,27.49,NW,315,0.0,3.1,13,0.00,,---,0.00,VWS V14.01,2013-06-05 19:57:00,
2013-06-05 16:02:00,76.8,11.1,27.49,South,184,5.8,5.8,8,0.00,,---,0.00,VWS V14.01,2013-06-05 20:02:00,
2013-06-05 16:07:00,76.1,10.6,27.49,NNE,20,2.2,2.2,8,0.00,,---,0.00,VWS V14.01,2013-06-05 20:07:00,
2013-06-05 16:12:00,75.6,15.2,27.46,SE,125,3.1,5.4,10,0.00,,---,0.00,VWS V14.01,2013-06-05 20:12:00,
2013-06-05 16:17:00,75.0,17.0,27.46,North,353,0.0,0.0,11,0.00,,---,0.00,VWS V14.01,2013-06-05 20:17:00,
2013-06-05 16:22:00,74.8,20.7,27.46,NNE,17,2.7,3.1,13,0.00,,---,0.00,VWS V14.01,2013-06-05 20:22:00,
2013-06-05 16:27:00,74.8,25.7,27.46,North,357,2.7,3.1,16,0.00,,---,0.00,VWS V14.01,2013-06-05 20:27:00,
2013-06-05 16:32:00,74.7,25.5,27.46,SE,129,3.6,9.6,16,0.00,,---,0.00,VWS V14.01,2013-06-05 20:32:00,
2013-06-05 16:37:00,74.5,25.4,27.46,NNE,21,2.7,4.0,16,0.00,,---,0.00,VWS V14.01,2013-06-05 20:37:00,
2013-06-05 16:42:00,74.5,25.4,27.46,NNE,27,2.2,3.6,16,0.00,,---,0.00,VWS V14.01,2013-06-05 20:42:00,
2013-06-05 16:47:00,74.3,25.2,27.46,ESE,106,0.0,2.2,16,0.00,,---,0.00,VWS V14.01,2013-06-05 20:47:00,
2013-06-05 16:52:00,74.1,27.9,27.46,East,96,2.7,2.7,18,0.00,,---,0.00,VWS V14.01,2013-06-05 20:52:00,
2013-06-05 16:57:00,74.3,28.1,27.46,North,1,2.2,2.2,18,0.00,,---,0.00,VWS V14.01,2013-06-05 20:57:00,
2013-06-05 17:02:00,74.3,28.1,27.46,West,264,2.2,2.7,18,0.00,,---,0.00,VWS V14.01,2013-06-05 21:02:00,
2013-06-05 17:07:00,74.5,20.5,27.46,NE,35,3.1,7.6,13,0.00,,---,0.00,VWS V14.01,2013-06-05 21:07:00,
2013-06-05 17:12:00,74.7,25.5,27.46,NNE,26,3.1,3.1,16,0.00,,---,0.00,VWS V14.01,2013-06-05 21:12:00,
2013-06-05 17:17:00,74.8,16.9,27.46,ENE,71,2.2,2.2,11,0.00,,---,0.00,VWS V14.01,2013-06-05 21:17:00,
2013-06-05 17:22:00,74.8,20.7,27.46,NE,52,5.8,5.8,13,0.00,,---,0.00,VWS V14.01,2013-06-05 21:22:00,
2013-06-05 17:27:00,74.8,20.7,27.46,East,83,3.1,3.1,13,0.00,,---,0.00,VWS V14.01,2013-06-05 21:27:00,
2013-06-05 17:32:00,74.8,20.7,27.46,ENE,77,3.1,3.1,13,0.00,,---,0.00,VWS V14.01,2013-06-05 21:32:00,
2013-06-05 17:37:00,74.8,25.7,27.46,ESE,104,2.7,2.7,16,0.00,,---,0.00,VWS V14.01,2013-06-05 21:37:00,
2013-06-05 17:42:00,74.7,20.6,27.46,ENE,72,2.7,3.6,13,0.00,,---,0.00,VWS V14.01,2013-06-05 21:42:00,
2013-06-05 17:47:00,74.5,25.4,27.46,East,93,5.8,5.8,16,0.00,,---,0.00,VWS V14.01,2013-06-05 21:47:00,
2013-06-05 17:52:00,74.3,28.1,27.46,WSW,257,2.7,2.7,18,0.00,,---,0.00,VWS V14.01,2013-06-05 21:52:00,
2013-06-05 17:57:00,74.1,31.7,27.46,West,277,0.0,0.0,21,0.00,,---,0.00,VWS V14.01,2013-06-05 21:57:00,
2013-06-05 18:02:00,73.9,31.6,27.46,East,101,0.0,0.0,21,0.00,,---,0.00,VWS V14.01,2013-06-05 22:02:00,
2013-06-05 18:07:00,73.8,31.4,27.46,SSE,149,2.7,2.7,21,0.00,,---,0.00,VWS V14.01,2013-06-05 22:07:00,
2013-06-05 18:12:00,73.6,32.4,27.46,NE,45,2.7,2.7,22,0.00,,---,0.00,VWS V14.01,2013-06-05 22:12:00,
2013-06-05 18:17:00,73.4,32.3,27.46,SE,124,2.7,3.1,22,0.00,,---,0.00,VWS V14.01,2013-06-05 22:17:00,
2013-06-05 18:22:00,73.2,32.1,27.46,West,262,4.0,6.3,22,0.00,,---,0.00,VWS V14.01,2013-06-05 22:22:00,
2013-06-05 18:27:00,72.9,32.9,27.46,SE,143,5.4,5.4,23,0.00,,---,0.00,VWS V14.01,2013-06-05 22:27:00,
2013-06-05 18:32:00,72.7,32.8,27.46,NW,317,0.0,0.0,23,0.00,,---,0.00,VWS V14.01,2013-06-05 22:32:00,
2013-06-05 18:37:00,72.7,33.8,27.46,ENE,59,2.2,3.1,24,0.00,,---,0.00,VWS V14.01,2013-06-05 22:37:00,
2013-06-05 18:42:00,72.5,33.7,27.46,NE,46,0.0,0.0,24,0.00,,---,0.00,VWS V14.01,2013-06-05 22:42:00,
2013-06-05 18:47:00,72.5,34.7,27.46,WSW,254,2.7,2.7,25,0.00,,---,0.00,VWS V14.01,2013-06-05 22:47:00,
2013-06-05 18:52:00,72.3,37.4,27.46,SSW,192,3.1,3.1,28,0.00,,---,0.00,VWS V14.01,2013-06-05 22:52:00,
2013-06-05 18:57:00,72.0,37.1,27.46,NE,40,2.7,5.4,28,0.00,,---,0.00,VWS V14.01,2013-06-05 22:57:00,
2013-06-05 19:02:00,71.8,38.7,27.46,NE,50,0.0,5.4,30,0.00,,---,0.00,VWS V14.01,2013-06-05 23:02:00,
2013-06-05 19:07:00,71.6,39.4,27.46,NE,47,3.6,4.0,31,0.00,,---,0.00,VWS V14.01,2013-06-05 23:07:00,
2013-06-05 19:12:00,71.4,40.0,27.46,NE,51,0.0,2.7,32,0.00,,---,0.00,VWS V14.01,2013-06-05 23:12:00,
2013-06-05 19:17:00,71.4,40.0,27.46,SE,135,2.2,2.7,32,0.00,,---,0.00,VWS V14.01,2013-06-05 23:17:00,
2013-06-05 19:22:00,71.4,40.0,27.46,ENE,65,2.7,3.1,32,0.00,,---,0.00,VWS V14.01,2013-06-05 23:22:00,
2013-06-05 19:28:00,71.2,39.9,27.46,NNE,21,3.1,3.1,32,0.00,,---,0.00,VWS V14.01,2013-06-05 23:28:00,
2013-06-05 19:33:00,71.1,39.7,27.46,NNE,22,3.1,3.6,32,0.00,,---,0.00,VWS V14.01,2013-06-05 23:33:00,
2013-06-05 19:37:00,71.1,39.7,27.46,WNW,293,3.1,3.1,32,0.00,,---,0.00,VWS V14.01,2013-06-05 23:37:00,
2013-06-05 19:42:00,70.9,39.6,27.46,SW,226,2.7,2.7,32,0.00,,---,0.00,VWS V14.01,2013-06-05 23:42:00,
2013-06-05 19:47:00,70.7,40.2,27.46,ESE,118,2.7,3.1,33,0.00,,---,0.00,VWS V14.01,2013-06-05 23:47:00,
2013-06-05 19:52:00,70.7,40.2,27.46,ESE,118,0.0,0.0,33,0.00,,---,0.00,VWS V14.01,2013-06-05 23:52:00,
2013-06-05 19:57:00,70.7,40.2,27.46,East,93,0.0,0.0,33,0.00,,---,0.00,VWS V14.01,2013-06-05 23:57:00,
2013-06-05 20:02:00,70.5,40.1,27.46,ESE,108,0.0,2.7,33,0.00,,---,0.00,VWS V14.01,2013-06-06 00:02:00,
2013-06-05 20:07:00,70.5,40.1,27.46,North,6,0.0,2.2,33,0.00,,---,0.00,VWS V14.01,2013-06-06 00:07:00,
2013-06-05 20:13:00,70.2,40.5,27.46,ESE,120,0.0,0.0,34,0.00,,---,0.00,VWS V14.01,2013-06-06 00:13:00,
2013-06-05 20:18:00,70.0,40.3,27.46,SW,228,0.0,0.0,34,0.00,,---,0.00,VWS V14.01,2013-06-06 00:18:00,
2013-06-05 20:23:00,69.8,40.9,27.46,SW,228,0.0,0.0,35,0.00,,---,0.00,VWS V14.01,2013-06-06 00:23:00,
2013-06-05 20:28:00,69.4,42.1,27.46,SW,228,0.0,2.2,37,0.00,,---,0.00,VWS V14.01,2013-06-06 00:28:00,
2013-06-05 20:33:00,69.3,43.9,27.46,NE,36,4.0,4.9,40,0.08,,---,0.08,VWS V14.01,2013-06-06 00:33:00,
2013-06-05 20:38:00,68.5,45.2,27.46,NE,43,4.0,4.0,43,0.12,,---,0.12,VWS V14.01,2013-06-06 00:38:00,
2013-06-05 20:43:00,68.2,45.5,27.46,ESE,123,2.7,4.0,44,0.24,,---,0.24,VWS V14.01,2013-06-06 00:43:00,
2013-06-05 20:48:00,67.8,45.7,27.46,SE,124,7.6,7.6,45,0.35,,---,0.35,VWS V14.01,2013-06-06 00:48:00,
2013-06-05 20:53:00,67.5,46.0,27.49,West,271,3.1,5.8,46,0.39,,---,0.39,VWS V14.01,2013-06-06 00:53:00,
2013-06-05 20:58:00,67.1,46.8,27.49,SW,222,4.0,4.0,48,0.43,,---,0.43,VWS V14.01,2013-06-06 00:58:00,
2013-06-05 21:03:00,66.7,46.5,27.49,West,265,2.7,3.1,48,0.43,,---,0.43,VWS V14.01,2013-06-06 01:03:00,
2013-06-05 21:08:00,66.6,46.8,27.49,South,189,2.7,3.1,49,0.47,,---,0.47,VWS V14.01,2013-06-06 01:08:00,
2013-06-05 21:13:00,66.4,47.2,27.49,ESE,107,3.1,3.1,50,0.47,,---,0.47,VWS V14.01,2013-06-06 01:13:00,
2013-06-05 21:18:00,66.2,47.0,27.49,SSE,156,0.0,2.7,50,0.51,,---,0.51,VWS V14.01,2013-06-06 01:18:00,
2013-06-05 21:23:00,66.2,47.6,27.49,SSE,158,0.0,0.0,51,0.51,,---,0.51,VWS V14.01,2013-06-06 01:23:00,
2013-06-05 21:28:00,66.2,47.6,27.49,SW,218,0.0,2.2,51,0.51,,---,0.51,VWS V14.01,2013-06-06 01:28:00,
2013-06-05 21:33:00,66.2,48.1,27.49,North,2,0.0,0.0,52,0.47,,---,0.55,VWS V14.01,2013-06-06 01:33:00,
2013-06-05 21:38:00,66.2,48.6,27.49,SSW,202,0.0,3.1,53,0.43,,---,0.55,VWS V14.01,2013-06-06 01:38:00,
2013-06-05 21:43:00,66.0,48.9,27.49,SE,125,2.2,2.7,54,0.39,,---,0.55,VWS V14.01,2013-06-06 01:43:00,
2013-06-05 21:48:00,66.0,49.4,27.49,East,84,0.0,3.6,55,0.24,,---,0.55,VWS V14.01,2013-06-06 01:48:00,
2013-06-05 21:53:00,66.0,49.4,27.49,WNW,294,0.0,0.0,55,0.16,,---,0.55,VWS V14.01,2013-06-06 01:53:00,
2013-06-05 21:58:00,66.0,49.9,27.49,North,349,2.7,4.0,56,0.12,,---,0.55,VWS V14.01,2013-06-06 01:58:00,
2013-06-05 22:03:00,65.8,49.7,27.49,North,3,0.0,0.0,56,0.12,,---,0.55,VWS V14.01,2013-06-06 02:03:00,
2013-06-05 22:08:00,65.8,50.2,27.49,NNE,29,2.7,2.7,57,0.12,,---,0.59,VWS V14.01,2013-06-06 02:08:00,
2013-06-05 22:13:00,65.8,50.2,27.49,SSW,204,3.1,3.1,57,0.12,,---,0.59,VWS V14.01,2013-06-06 02:13:00,
2013-06-05 22:18:00,65.8,50.2,27.49,SW,220,3.1,3.6,57,0.08,,---,0.59,VWS V14.01,2013-06-06 02:18:00,
2013-06-05 22:23:00,65.8,50.7,27.49,SW,225,3.1,4.0,58,0.08,,---,0.59,VWS V14.01,2013-06-06 02:23:00,
2013-06-05 22:28:00,65.7,50.5,27.49,SE,141,2.7,3.1,58,0.08,,---,0.59,VWS V14.01,2013-06-06 02:28:00,
2013-06-05 22:33:00,65.7,50.5,27.49,SSW,203,0.0,2.7,58,0.04,,---,0.59,VWS V14.01,2013-06-06 02:33:00,
2013-06-05 22:38:00,65.7,51.0,27.49,SSW,206,3.6,3.6,59,0.04,,---,0.59,VWS V14.01,2013-06-06 02:38:00,
2013-06-05 22:43:00,65.5,50.8,27.49,SSE,150,2.7,2.7,59,0.04,,---,0.59,VWS V14.01,2013-06-06 02:43:00,
2013-06-05 22:48:00,65.5,50.8,27.49,SW,220,3.1,5.4,59,0.04,,---,0.59,VWS V14.01,2013-06-06 02:48:00,
2013-06-05 22:53:00,65.5,51.2,27.49,SSE,168,0.0,2.7,60,0.04,,---,0.59,VWS V14.01,2013-06-06 02:53:00,
2013-06-05 22:58:00,65.3,51.1,27.49,NNE,17,6.3,6.7,60,0.04,,---,0.59,VWS V14.01,2013-06-06 02:58:00,
2013-06-05 23:03:00,65.3,51.1,27.49,WSW,244,0.0,2.7,60,0.08,,---,0.63,VWS V14.01,2013-06-06 03:03:00,
2013-06-05 23:08:00,65.1,51.3,27.49,SSW,208,0.0,3.6,61,0.04,,---,0.63,VWS V14.01,2013-06-06 03:08:00,
2013-06-05 23:13:00,65.1,51.3,27.49,SSW,208,0.0,0.0,61,0.04,,---,0.63,VWS V14.01,2013-06-06 03:13:00,
2013-06-05 23:18:00,65.1,51.3,27.49,SSE,159,0.0,0.0,61,0.08,,---,0.67,VWS V14.01,2013-06-06 03:18:00,
2013-06-05 23:23:00,65.1,51.3,27.49,SSE,166,0.0,0.0,61,0.12,,---,0.71,VWS V14.01,2013-06-06 03:23:00,
2013-06-05 23:28:00,65.1,51.3,27.49,South,179,0.0,0.0,61,0.12,,---,0.71,VWS V14.01,2013-06-06 03:28:00,
2013-06-05 23:33:00,65.1,51.8,27.49,SSW,198,2.2,3.1,62,0.12,,---,0.71,VWS V14.01,2013-06-06 03:33:00,
2013-06-05 23:38:00,65.1,51.8,27.49,SW,234,0.0,0.0,62,0.12,,---,0.71,VWS V14.01,2013-06-06 03:38:00,
2013-06-05 23:43:00,65.1,51.8,27.49,SW,230,2.2,2.2,62,0.12,,---,0.71,VWS V14.01,2013-06-06 03:43:00,
2013-06-05 23:48:00,65.1,51.8,27.49,SE,146,0.0,0.0,62,0.12,,---,0.71,VWS V14.01,2013-06-06 03:48:00,
2013-06-05 23:53:00,65.1,52.2,27.46,WNW,291,0.0,0.0,63,0.12,,---,0.71,VWS V14.01,2013-06-06 03:53:00,
2013-06-05 23:58:00,65.1,52.2,27.46,SE,138,0.0,0.0,63,0.12,,---,0.71,VWS V14.01,2013-06-06 03:58:00,